Showing default

EUTE 36B (EUTE W7), 36101

Orbit data source: Space-Track

EUTE 36B (EUTE W7), 36101 is a payload satellite owned by EutelsatSA (FR) in GEO that was launched on Tue, 24 Nov 2009 UTC via a PROTON-M/BRIZ-M launch vehicle from the Tyuratam Missile And Space Complex (TTMTR). Payload-class satellites include a variety of spacecraft equipped with specific instruments for various scientific and technological missions. These include communications satellites like Starlink; space stations such as the ISS; scientific satellites like the Hubble; Earth observation satellites from companies like Planet Labs, Umbra, and HawkEye 360; GPS; miniature CubeSats for education and research; and military/defense satellites.

Not visible in the next 10 days
Identifier
36101, 2009-065A
Orbit
GEO
Country
Flag of FRFR / EUTE
Related business
Manufacturer
Thales Alenia
Mission
Operational Commercial Communications
Bus & Motor
SPACEBUS 4000C4, S400
Mass
5,627 kg wet, ~2,800 kg dry
Launch date (UTC)
2009-11-24 (17 years ago)
Launch vehicle
PROTON-M/BRIZ-M
Launch site
Tyuratam Missile And Space Complex (TTMTR)
Object type
Payload
Rocket body
Debris
Shape & HBR
Box + 2 Pan + 1 Dish, 17.0 m
Radar Cross Section
44.769 m², Large (>1 m²)

Expand to show TLE details & history
Last TLE update: 7 hours ago

TLE from 7 hours ago
0 EUTE 36B (EUTE W7)
1 36101U 09065A   26254.78794652  .00000097  00000-0  00000+0 0  9993
2 36101   0.7037  81.1787 0005733  87.2596 156.5365  1.00269389 61575
Epoch: 2026-09-11T18:54Z
TLE epoch observation values (Epoch: 2026-09-11T18:54:38.579Z)
Latitude
-0.62425°
Longitude
50.5328°
Altitude
35,809.137 km
Speed
3.073 km/s
True Right ascension
21h 39m 59s
True Declination
0° 37' 25"
Sunlit
Object was in daylight at epoch
Visualization orbit readout
Latitude
Unknown
Longitude
Unknown
Altitude
Unknown
Speed
Unknown
Apparent Right ascension
Unknown
Apparent Declination
Unknown
Sunlit
N/A
Visualization observer readout
Local Sidereal Time
18:20:35
Azimuth
Unknown
Elevation
Unknown
Doppler factor
Unknown
Orbital elements
Apogee altitude
35,812.511 km
Perigee altitude
35,764.163 km
Semi-major axis
42,166.474 km
Eccentricity
0.00057
Inclination
0.7037°
RAAN
81.1787°
Arg. of periapsis
87.2596°
True anomaly
156.56264°
Mean anomaly
156.5365°
Eccentric anomaly
156.54957°
Mean motion
0.25066 °/min
Orbital period
1,436.18 mins
BSTAR
0
Loading maneuver chart data...
Computing Atmospheric mass density...
Loading historical data...
Loading historical data...
Loading historical data...
Loading historical data...
Loading historical data...
Loading historical data...
Loading historical data...
Other satellites on launch #65 in the year 2009 (2009-11-24 UTC)

Documentation

Showing up to 5 results
|